QPF
0.00 0.00 0.00 0.00 0.00 0.00 0.00 0.00 0.00 0.00 0.00 0.00 0.00 0.00 0.00 0.00 0.00 0.00 0.00 0.00 0.00 0.00 0.00 0.00 0.00 0.00 0.00 0.00 0.00 0.00 0.00 0.01 0.07 0.07 0.04 0.09 0.19 0.08 0.04 0.04 0.02 0.03 0.01 0.00 0.00
0.00 0.00 0.00 0.00 0.00 0.00 0.00 0.00 0.00 0.00 0.00 0.00 0.00 0.00 0.00 0.00 0.00 0.00 0.00 0.00 0.00 0.00 0.00 0.00 0.00 0.00 0.00 0.00 0.00 0.00 0.00 0.00 0.02 0.04 0.11 0.04 0.16 0.17 0.06 0.02 0.01 0.03 0.00 0.00 0.00
0.00 0.00 0.00 0.00 0.00 0.00 0.00 0.00 0.00 0.00 0.00 0.00 0.00 0.00 0.00 0.00 0.00 0.00 0.00 0.00 0.00 0.00 0.00 0.00 0.00 0.00 0.00 0.00 0.00 0.00 0.00 0.00 0.00 0.04 0.13 0.04 0.11 0.05 0.10 0.02 0.01 0.04 0.00 0.00 0.00
0.00 0.00 0.00 0.00 0.00 0.00 0.00 0.00 0.00 0.00 0.00 0.00 0.00 0.00 0.00 0.00 0.00 0.00 0.00 0.00 0.00 0.00 0.00 0.00 0.00 0.00 0.00 0.00 0.00 0.00 0.00 0.00 0.00 0.01 0.09 0.09 0.07 0.07 0.18 0.07 0.09 0.04 0.00 0.00 0.00
0.00 0.00 0.00 0.00 0.00 0.00 0.00 0.00 0.00 0.00 0.00 0.00 0.00 0.00 0.00 0.00 0.00 0.00 0.00 0.00 0.00 0.00 0.00 0.00 0.00 0.00 0.00 0.00 0.00 0.00 0.00 0.00 0.00 0.00 0.02 0.02 0.02 0.06 0.07 0.08 0.11 0.05 0.00 0.00 0.00
0.00 0.00 0.00 0.00 0.00 0.00 0.00 0.00 0.00 0.00 0.00 0.00 0.00 0.00 0.00 0.00 0.00 0.00 0.00 0.00 0.00 0.00 0.00 0.00 0.00 0.00 0.00 0.00 0.00 0.00 0.00 0.00 0.00 0.00 0.01 0.01 0.02 0.03 0.03 0.06 0.05 0.03 0.00 0.00 0.00
0.00 0.00 0.00 0.00 0.00 0.00 0.00 0.00 0.00 0.00 0.00 0.00 0.00 0.00 0.00 0.00 0.00 0.00 0.00 0.00 0.00 0.00 0.00 0.00 0.00 0.00 0.00 0.00 0.00 0.00 0.00 0.00 0.00 0.00 0.00 0.01 0.03 0.03 0.03 0.06 0.03 0.02 0.00 0.00 0.00
0.00 0.00 0.00 0.00 0.00 0.00 0.00 0.00 0.00 0.00 0.00 0.00 0.00 0.00 0.00 0.00 0.00 0.00 0.00 0.00 0.00 0.00 0.00 0.00 0.00 0.00 0.00 0.00 0.00 0.00 0.00 0.00 0.00 0.00 0.00 0.00 0.13 0.07 0.07 0.02 0.03 0.04 0.01 0.00 0.00
0.00 0.00 0.00 0.00 0.00 0.00 0.00 0.00 0.00 0.00 0.00 0.00 0.00 0.00 0.00 0.00 0.00 0.00 0.00 0.00 0.00 0.00 0.00 0.00 0.00 0.00 0.00 0.00 0.00 0.00 0.00 0.00 0.00 0.00 0.00 0.01 0.04 0.05 0.06 0.09 0.13 0.08 0.01 0.00 0.00
0.00 0.00 0.00 0.00 0.00 0.00 0.00 0.00 0.00 0.00 0.00 0.00 0.00 0.00 0.00 0.00 0.00 0.00 0.00 0.00 0.00 0.00 0.00 0.00 0.00 0.00 0.00 0.00 0.00 0.00 0.00 0.00 0.00 0.00 0.00 0.00 0.01 0.01 0.01 0.03 0.15 0.15 0.05 0.00 0.00
0.00 0.00 0.00 0.00 0.00 0.00 0.00 0.00 0.00 0.00 0.00 0.00 0.00 0.00 0.00 0.00 0.00 0.00 0.00 0.00 0.00 0.00 0.00 0.00 0.00 0.00 0.00 0.00 0.00 0.00 0.00 0.00 0.00 0.00 0.00 0.00 0.00 0.00 0.00 0.01 0.03 0.06 0.03 0.02 0.00
0.00 0.00 0.00 0.00 0.00 0.00 0.00 0.00 0.00 0.00 0.00 0.00 0.00 0.00 0.00 0.00 0.00 0.00 0.00 0.00 0.00 0.00 0.00 0.00 0.00 0.00 0.00 0.00 0.00 0.00 0.00 0.00 0.00 0.00 0.00 0.00 0.00 0.00 0.00 0.00 0.01 0.05 0.01 0.01 0.00
0.00 0.00 0.00 0.00 0.00 0.00 0.00 0.00 0.00 0.00 0.00 0.00 0.00 0.00 0.00 0.00 0.00 0.00 0.00 0.00 0.00 0.00 0.00 0.00 0.00 0.00 0.00 0.00 0.00 0.00 0.00 0.00 0.00 0.00 0.00 0.00 0.00 0.00 0.00 0.00 0.01 0.05 0.04 0.06 0.01
0.00 0.00 0.00 0.00 0.00 0.00 0.00 0.00 0.00 0.00 0.00 0.00 0.00 0.00 0.00 0.00 0.00 0.00 0.00 0.00 0.00 0.00 0.00 0.00 0.00 0.00 0.00 0.00 0.00 0.00 0.00 0.00 0.00 0.00 0.00 0.00 0.00 0.00 0.00 0.00 0.01 0.05 0.12 0.06 0.04
0.00 0.00 0.00 0.00 0.00 0.00 0.00 0.00 0.00 0.00 0.00 0.00 0.00 0.00 0.00 0.00 0.00 0.00 0.00 0.00 0.00 0.00 0.00 0.00 0.00 0.00 0.00 0.00 0.00 0.00 0.00 0.00 0.00 0.00 0.00 0.00 0.00 0.00 0.00 0.00 0.00 0.02 0.12 0.12 0.04
0.00 0.00 0.00 0.00 0.00 0.00 0.00 0.00 0.00 0.00 0.00 0.00 0.00 0.00 0.00 0.00 0.00 0.00 0.00 0.00 0.00 0.00 0.00 0.00 0.00 0.00 0.00 0.00 0.00 0.00 0.00 0.00 0.00 0.00 0.00 0.00 0.00 0.00 0.00 0.00 0.00 0.00 0.02 0.04 0.02
0.00 0.00 0.00 0.00 0.00 0.00 0.00 0.00 0.00 0.00 0.00 0.00 0.00 0.00 0.00 0.00 0.00 0.00 0.00 0.00 0.00 0.00 0.00 0.00 0.00 0.00 0.00 0.00 0.00 0.00 0.00 0.00 0.00 0.00 0.00 0.00 0.00 0.00 0.00 0.00 0.00 0.00 0.00 0.01 0.01
0.00 0.00 0.00 0.00 0.00 0.00 0.00 0.00 0.00 0.00 0.00 0.00 0.00 0.00 0.00 0.00 0.00 0.00 0.00 0.00 0.00 0.00 0.00 0.00 0.00 0.00 0.00 0.00 0.00 0.00 0.00 0.00 0.00 0.00 0.00 0.00 0.00 0.00 0.00 0.00 0.00 0.00 0.00 0.00 0.02
0.00 0.00 0.00 0.00 0.00 0.00 0.00 0.00 0.00 0.00 0.00 0.00 0.00 0.00 0.00 0.00 0.00 0.00 0.00 0.00 0.00 0.00 0.00 0.00 0.00 0.00 0.00 0.00 0.00 0.00 0.00 0.00 0.00 0.00 0.00 0.00 0.00 0.00 0.00 0.00 0.00 0.00 0.00 0.00 0.03
0.00 0.00 0.00 0.00 0.00 0.00 0.00 0.00 0.00 0.00 0.00 0.00 0.00 0.00 0.00 0.00 0.00 0.00 0.00 0.00 0.00 0.00 0.00 0.00 0.00 0.00 0.00 0.00 0.00 0.00 0.00 0.00 0.00 0.00 0.00 0.00 0.00 0.00 0.00 0.00 0.00 0.00 0.00 0.00 0.01
0.00 0.00 0.00 0.00 0.00 0.00 0.00 0.00 0.00 0.00 0.00 0.00 0.00 0.00 0.00 0.00 0.00 0.00 0.00 0.00 0.00 0.00 0.00 0.00 0.00 0.00 0.00 0.00 0.00 0.00 0.00 0.00 0.00 0.00 0.00 0.00 0.00 0.00 0.00 0.00 0.00 0.00 0.00 0.00 0.00
0.00 0.00 0.00 0.00 0.00 0.00 0.00 0.00 0.00 0.00 0.00 0.00 0.00 0.00 0.00 0.00 0.00 0.00 0.00 0.00 0.00 0.00 0.00 0.00 0.00 0.00 0.00 0.00 0.00 0.00 0.00 0.00 0.00 0.00 0.00 0.00 0.00 0.00 0.00 0.00 0.00 0.00 0.00 0.00 0.00
0.00 0.00 0.00 0.00 0.00 0.00 0.00 0.00 0.00 0.00 0.00 0.00 0.00 0.00 0.00 0.00 0.00 0.00 0.00 0.00 0.00 0.00 0.00 0.00 0.00 0.00 0.00 0.00 0.00 0.00 0.00 0.00 0.00 0.00 0.00 0.00 0.00 0.00 0.00 0.00 0.00 0.00 0.00 0.00 0.00
0.00 0.00 0.00 0.00 0.00 0.00 0.00 0.00 0.00 0.00 0.00 0.00 0.00 0.00 0.00 0.00 0.00 0.00 0.00 0.00 0.00 0.00 0.00 0.00 0.00 0.00 0.00 0.00 0.00 0.00 0.00 0.00 0.00 0.00 0.00 0.00 0.00 0.00 0.00 0.00 0.00 0.00 0.00 0.00 0.00
0.00 0.00 0.00 0.00 0.00 0.00 0.00 0.00 0.00 0.00 0.00 0.00 0.00 0.00 0.00 0.00 0.00 0.00 0.00 0.00 0.00 0.00 0.00 0.00 0.00 0.00 0.00 0.00 0.00 0.00 0.00 0.00 0.00 0.00 0.00 0.00 0.00 0.00 0.00 0.00 0.00 0.00 0.00 0.00 0.01
0.00 0.00 0.00 0.00 0.00 0.00 0.00 0.00 0.00 0.00 0.00 0.00 0.00 0.00 0.00 0.00 0.00 0.00 0.00 0.00 0.00 0.00 0.00 0.00 0.01 0.01 0.00 0.00 0.00 0.00 0.00 0.00 0.00 0.00 0.00 0.00 0.00 0.00 0.00 0.00 0.00 0.00 0.01 0.01 0.01
0.00 0.00 0.00 0.00 0.00 0.00 0.00 0.00 0.00 0.00 0.00 0.00 0.00 0.00 0.00 0.00 0.00 0.00 0.00 0.00 0.00 0.00 0.00 0.02 0.05 0.06 0.01 0.00 0.00 0.00 0.00 0.00 0.00 0.00 0.00 0.00 0.00 0.00 0.00 0.00 0.00 0.00 0.01 0.01 0.00
MSLP
1017.85 1017.41 1016.96 1016.53 1015.97 1015.39 1014.80 1014.37 1014.04 1013.66 1013.36 1013.12 1012.89 1012.66 1012.45 1012.21 1011.91 1011.54 1010.05 1007.87 1007.71 1007.56 1007.94 1007.89 1007.77 1007.68 1007.71 1007.64 1007.22 1006.87 1007.40 1007.27 1007.56 1007.90 1008.73 1008.31 1008.90 1008.44 1006.13 1006.87 1007.35 1007.18 1007.57 1008.50 1009.11
1017.82 1017.36 1016.86 1016.33 1015.84 1015.28 1014.72 1014.15 1013.76 1013.38 1013.04 1012.80 1012.60 1012.44 1012.27 1012.14 1011.67 1009.94 1007.42 1007.18 1007.26 1007.46 1007.64 1007.61 1007.38 1007.33 1007.31 1006.82 1006.54 1006.12 1006.35 1006.06 1006.60 1007.44 1008.28 1008.87 1009.10 1007.84 1006.98 1006.58 1007.52 1007.72 1008.29 1008.75 1009.27
1017.76 1017.17 1016.69 1016.16 1015.59 1015.10 1014.61 1014.08 1013.52 1013.05 1012.72 1012.45 1012.26 1012.14 1012.01 1011.90 1010.84 1007.00 1005.59 1006.78 1007.06 1007.21 1007.32 1007.18 1006.76 1006.82 1006.79 1006.26 1005.66 1005.31 1004.83 1004.60 1004.78 1005.36 1007.19 1008.83 1009.20 1010.23 1009.38 1007.17 1007.02 1007.77 1008.01 1008.72 1009.18
1017.80 1017.19 1016.51 1015.90 1015.36 1014.80 1014.30 1013.83 1013.33 1012.85 1012.34 1012.12 1011.99 1011.94 1011.92 1011.82 1009.17 1005.94 1005.85 1006.23 1006.72 1006.95 1007.13 1007.04 1006.68 1006.50 1006.12 1005.59 1004.74 1004.45 1003.74 1003.32 1002.98 1003.95 1006.24 1007.96 1008.84 1009.37 1009.78 1008.88 1006.83 1006.94 1007.36 1008.40 1008.75
1017.70 1017.14 1016.47 1015.76 1015.09 1014.53 1014.00 1013.53 1013.08 1012.65 1012.17 1011.84 1011.76 1011.74 1011.93 1010.51 1007.07 1005.21 1005.70 1006.22 1006.63 1006.75 1006.60 1006.72 1006.33 1005.85 1005.29 1004.72 1004.11 1003.56 1002.92 1002.36 1001.92 1002.94 1003.90 1006.35 1007.60 1008.58 1008.06 1008.39 1007.73 1007.64 1007.80 1008.24 1008.75
1017.57 1016.92 1016.26 1015.60 1014.93 1014.24 1013.65 1013.18 1012.75 1012.38 1011.96 1011.59 1011.62 1011.68 1011.37 1008.52 1004.55 1004.77 1005.35 1006.01 1005.79 1006.07 1006.07 1006.08 1005.33 1004.70 1004.40 1004.08 1003.59 1002.86 1002.35 1001.80 1001.66 1002.06 1002.46 1004.66 1006.79 1008.43 1007.91 1007.88 1008.23 1007.78 1008.10 1008.13 1008.59
1017.38 1016.73 1016.12 1015.39 1014.71 1014.05 1013.37 1012.84 1012.36 1012.05 1011.70 1011.32 1011.35 1011.39 1009.86 1006.52 1004.25 1004.12 1004.37 1004.80 1005.06 1005.30 1005.55 1005.25 1004.80 1005.03 1003.97 1003.74 1002.99 1002.69 1002.42 1001.86 1001.50 1001.44 1001.94 1003.40 1006.78 1007.71 1008.08 1007.98 1008.59 1008.28 1008.04 1008.57 1008.68
1017.26 1016.57 1015.83 1015.12 1014.45 1013.79 1013.11 1012.42 1011.82 1011.55 1011.38 1011.24 1011.22 1010.85 1008.20 1004.42 1004.04 1003.95 1004.02 1003.97 1004.41 1004.58 1005.06 1004.72 1004.42 1004.57 1004.14 1003.66 1003.30 1003.10 1002.82 1002.44 1001.69 1001.46 1001.41 1002.86 1005.78 1008.51 1007.99 1008.54 1008.97 1009.32 1008.86 1008.96 1008.87
1017.05 1016.40 1015.56 1014.72 1013.99 1013.47 1012.64 1011.67 1010.88 1010.76 1010.84 1011.00 1011.09 1010.11 1006.64 1004.07 1003.98 1003.68 1003.47 1003.59 1004.02 1004.36 1004.65 1004.55 1004.33 1004.39 1004.10 1004.27 1004.36 1003.87 1003.68 1002.90 1002.09 1001.22 1001.37 1002.22 1006.71 1008.62 1007.98 1008.83 1010.25 1010.39 1009.96 1009.64 1009.24
1016.87 1016.17 1015.31 1014.43 1013.45 1013.02 1012.13 1010.35 1009.84 1010.14 1010.38 1010.21 1009.65 1009.04 1005.75 1003.96 1003.47 1003.36 1003.35 1003.38 1003.69 1004.33 1004.76 1004.79 1004.63 1004.49 1004.64 1004.90 1004.87 1004.62 1003.72 1002.78 1001.97 1001.05 1001.19 1002.26 1005.30 1008.37 1009.36 1009.23 1009.46 1012.01 1011.24 1009.90 1009.62
1016.56 1015.84 1015.09 1014.14 1013.10 1012.83 1012.09 1010.18 1010.05 1009.96 1009.03 1007.56 1006.60 1005.48 1003.82 1003.33 1003.26 1003.30 1003.22 1003.46 1003.53 1004.18 1004.67 1004.42 1004.71 1004.62 1004.92 1004.87 1004.70 1004.28 1003.64 1002.93 1001.49 1000.46 1000.77 1001.94 1004.56 1006.66 1008.77 1009.44 1009.76 1010.88 1011.20 1010.23 1009.51
1016.33 1015.59 1014.76 1013.77 1012.70 1012.09 1012.33 1010.68 1008.50 1008.04 1007.24 1005.86 1005.05 1004.27 1003.69 1003.42 1003.18 1002.92 1003.23 1003.75 1003.68 1004.22 1004.53 1004.89 1004.72 1004.60 1004.54 1004.48 1004.30 1003.97 1003.43 1002.52 1001.20 1000.27 1000.48 1001.52 1003.80 1005.40 1006.70 1007.78 1008.18 1008.00 1009.13 1009.66 1009.00
1016.02 1015.33 1014.52 1013.46 1012.28 1011.14 1010.40 1008.84 1007.44 1007.11 1006.92 1004.74 1003.75 1003.59 1003.25 1003.52 1003.04 1002.96 1003.30 1003.41 1003.75 1004.21 1004.39 1004.58 1004.19 1003.96 1003.91 1003.79 1003.65 1003.36 1003.06 1002.39 1001.84 1000.74 1000.67 1001.32 1004.13 1005.33 1006.44 1007.10 1007.92 1007.41 1008.36 1009.58 1008.20
1015.70 1014.97 1014.40 1013.26 1012.14 1010.66 1009.02 1007.43 1006.92 1006.92 1006.81 1004.06 1003.27 1002.97 1003.05 1003.33 1003.19 1002.97 1003.28 1003.78 1003.63 1003.90 1004.00 1003.98 1003.76 1003.44 1003.42 1003.20 1003.10 1002.83 1002.42 1002.15 1001.95 1001.97 1002.25 1001.76 1003.97 1005.07 1006.07 1006.72 1007.43 1008.09 1008.17 1009.38 1010.34
1015.42 1014.75 1014.15 1014.32 1012.84 1010.79 1008.16 1007.22 1007.04 1007.14 1005.94 1003.53 1003.25 1003.13 1002.84 1003.48 1003.35 1003.41 1003.64 1004.00 1004.14 1003.98 1003.96 1003.55 1003.08 1002.73 1002.56 1002.38 1002.28 1002.47 1002.32 1002.46 1002.66 1002.61 1002.95 1002.26 1003.81 1003.30 1004.95 1006.65 1007.03 1006.77 1007.54 1008.93 1008.89
1014.95 1014.50 1014.13 1012.05 1012.50 1009.70 1008.18 1007.51 1007.35 1007.53 1004.71 1003.09 1003.22 1003.24 1003.42 1003.47 1003.21 1003.72 1003.97 1004.37 1004.27 1004.28 1004.07 1003.66 1002.68 1002.52 1002.03 1001.77 1001.72 1002.09 1002.57 1003.02 1003.34 1003.85 1003.89 1003.17 1003.86 1003.09 1004.47 1003.98 1005.99 1006.84 1006.22 1007.09 1008.04
1014.50 1013.75 1014.25 1012.65 1010.42 1008.36 1007.92 1007.88 1007.91 1006.40 1003.40 1003.69 1003.40 1003.38 1003.36 1003.52 1003.42 1003.82 1004.20 1004.59 1004.78 1005.00 1004.80 1004.23 1003.52 1002.62 1002.34 1002.31 1001.82 1002.38 1003.44 1004.32 1004.81 1004.96 1004.20 1003.89 1003.27 1002.51 1001.54 1002.35 1003.19 1004.43 1005.63 1004.04 1005.42
1013.79 1013.10 1011.82 1010.98 1009.40 1008.78 1008.47 1008.58 1007.80 1005.81 1004.96 1004.24 1004.00 1003.98 1003.87 1003.74 1003.74 1004.20 1004.68 1005.03 1004.88 1005.20 1005.40 1005.21 1004.39 1003.31 1002.51 1002.70 1002.88 1003.03 1003.78 1004.80 1005.35 1005.42 1004.81 1004.19 1002.77 1000.89 1000.48 1001.10 1002.38 1003.13 1003.29 1003.64 1003.14
1013.41 1011.67 1010.98 1009.18 1008.93 1008.80 1009.04 1008.52 1008.13 1007.32 1007.11 1006.22 1005.32 1004.84 1004.66 1004.44 1004.76 1005.26 1005.44 1005.64 1005.69 1006.14 1006.68 1006.32 1005.33 1004.50 1003.99 1003.72 1003.01 1003.40 1003.63 1004.17 1005.02 1005.42 1005.01 1003.95 1001.94 1000.30 1000.02 999.91 1000.95 1002.36 1003.36 1003.34 1003.92
1013.94 1011.90 1009.51 1007.97 1007.87 1008.39 1008.98 1008.34 1008.28 1008.59 1008.14 1007.48 1006.91 1006.47 1006.32 1006.27 1006.22 1006.40 1006.33 1006.40 1006.51 1006.94 1007.24 1007.74 1007.70 1006.41 1005.21 1004.51 1002.98 1003.06 1003.76 1004.56 1004.96 1005.70 1005.17 1004.05 1002.32 1000.74 999.95 999.59 999.80 1000.39 1001.32 1001.71 1003.13
1013.32 1011.17 1008.49 1007.69 1007.80 1008.57 1008.88 1009.50 1009.08 1008.90 1008.82 1008.62 1008.46 1008.30 1008.38 1008.40 1008.39 1008.06 1007.69 1008.56 1008.10 1008.11 1008.57 1008.88 1009.16 1008.28 1007.56 1006.34 1005.79 1005.24 1004.56 1004.99 1005.60 1005.94 1005.38 1004.63 1002.56 1000.52 999.97 1000.20 999.58 998.16 999.06 1000.06 1001.60
1012.63 1010.21 1008.17 1007.58 1008.36 1008.40 1009.38 1009.76 1009.84 1009.68 1009.59 1009.53 1009.42 1009.52 1010.14 1010.22 1010.10 1009.78 1009.43 1009.40 1009.74 1009.64 1010.48 1010.88 1010.78 1010.30 1009.03 1007.66 1007.13 1006.79 1006.36 1005.74 1006.10 1006.26 1005.38 1004.51 1002.80 999.82 1000.56 1000.33 999.57 997.41 997.67 998.55 999.95
1013.44 1009.97 1008.30 1007.49 1009.23 1009.64 1009.76 1010.47 1011.08 1011.13 1011.41 1011.39 1011.15 1011.64 1011.76 1011.88 1011.90 1011.32 1010.83 1010.58 1010.80 1011.27 1012.26 1012.54 1012.12 1011.75 1010.50 1008.84 1007.73 1007.63 1006.63 1006.35 1005.80 1006.04 1005.68 1004.89 1002.89 1002.26 1001.54 1001.26 1001.38 1000.45 1000.35 999.34 1000.39
1013.91 1011.18 1010.14 1010.19 1010.97 1011.32 1011.38 1011.40 1011.90 1012.18 1012.52 1012.62 1012.70 1012.66 1013.18 1013.40 1012.97 1012.73 1012.18 1011.65 1011.76 1012.33 1013.00 1013.34 1013.72 1013.71 1012.82 1011.35 1010.91 1009.86 1008.68 1007.79 1007.02 1006.57 1006.10 1004.67 1003.87 1003.28 1002.53 1002.29 1002.20 1001.48 1000.97 1000.43 1000.62
1013.65 1012.97 1012.35 1012.56 1012.61 1012.91 1013.05 1013.56 1013.52 1013.78 1013.60 1013.58 1013.42 1013.99 1014.52 1014.85 1014.63 1014.14 1013.98 1013.54 1013.15 1013.22 1013.63 1014.52 1014.66 1014.63 1013.74 1012.75 1011.99 1011.08 1010.04 1009.10 1008.34 1007.06 1006.33 1005.35 1004.67 1004.22 1003.17 1002.76 1002.78 1002.78 1002.58 1002.74 1003.58
1014.37 1014.09 1013.41 1013.47 1013.48 1013.93 1014.58 1015.04 1015.21 1015.21 1014.90 1014.70 1015.06 1015.30 1015.56 1015.79 1015.81 1015.52 1015.45 1015.24 1014.86 1014.58 1014.66 1015.04 1015.57 1015.74 1015.08 1014.10 1012.89 1011.50 1010.50 1009.68 1008.59 1007.31 1006.29 1005.68 1005.16 1004.65 1003.29 1002.83 1003.04 1003.28 1003.38 1004.09 1004.92
1014.83 1014.34 1014.38 1014.30 1014.56 1015.04 1015.90 1016.02 1015.85 1015.79 1015.68 1015.46 1015.74 1016.09 1016.20 1016.16 1016.18 1016.06 1015.85 1015.72 1015.67 1015.80 1015.75 1016.01 1016.50 1016.93 1016.23 1015.47 1014.22 1012.24 1010.70 1009.97 1008.79 1007.67 1007.00 1006.42 1006.29 1005.62 1005.00 1004.49 1004.35 1004.13 1004.35 1004.56 1004.84
Thickness
5710 5713 5716 5720 5724 5729 5734 5738 5741 5744 5747 5749 5752 5755 5758 5762 5766 5771 5778 5801 5805 5810 5809 5809 5808 5808 5808 5800 5808 5813 5777 5771 5778 5784 5777 5793 5781 5798 5829 5811 5813 5818 5815 5813 5816
5705 5709 5712 5717 5720 5725 5730 5735 5738 5742 5746 5749 5751 5754 5756 5759 5764 5775 5802 5806 5807 5808 5804 5798 5796 5802 5793 5799 5803 5797 5780 5787 5798 5793 5781 5790 5783 5775 5795 5817 5806 5806 5816 5816 5813
5700 5704 5708 5712 5717 5721 5725 5730 5735 5740 5744 5747 5750 5753 5755 5758 5765 5791 5814 5806 5805 5807 5805 5805 5808 5802 5790 5801 5802 5801 5788 5809 5814 5811 5804 5787 5778 5777 5782 5806 5814 5800 5809 5810 5809
5695 5698 5704 5709 5713 5718 5722 5726 5731 5735 5741 5745 5747 5749 5751 5754 5763 5801 5808 5807 5805 5805 5801 5797 5797 5789 5786 5787 5809 5793 5815 5822 5830 5828 5805 5788 5790 5772 5778 5787 5823 5824 5822 5813 5811
5691 5694 5698 5704 5709 5714 5719 5723 5728 5732 5737 5741 5743 5745 5746 5752 5774 5807 5805 5802 5802 5800 5796 5790 5790 5791 5785 5797 5806 5804 5817 5831 5841 5832 5822 5813 5795 5787 5792 5804 5817 5822 5817 5812 5809
5686 5691 5694 5699 5704 5710 5715 5720 5724 5729 5733 5737 5738 5740 5742 5746 5808 5805 5804 5799 5802 5798 5794 5796 5797 5807 5799 5800 5801 5816 5821 5828 5837 5839 5843 5811 5800 5786 5802 5813 5809 5814 5811 5815 5810
5677 5683 5688 5694 5700 5705 5711 5716 5721 5725 5729 5733 5735 5737 5745 5762 5803 5806 5807 5801 5803 5800 5791 5801 5806 5795 5806 5795 5818 5817 5802 5818 5828 5837 5837 5833 5785 5789 5805 5810 5803 5805 5812 5809 5810
5668 5673 5680 5687 5694 5700 5706 5713 5719 5722 5724 5727 5729 5733 5741 5793 5799 5800 5803 5800 5804 5804 5798 5804 5809 5798 5797 5809 5805 5794 5799 5780 5818 5829 5838 5829 5771 5780 5802 5802 5800 5795 5803 5806 5808
5661 5666 5673 5680 5687 5693 5701 5710 5718 5720 5721 5721 5723 5726 5740 5789 5781 5794 5800 5791 5795 5797 5796 5802 5799 5788 5793 5776 5763 5780 5756 5777 5796 5831 5829 5826 5763 5780 5795 5793 5780 5786 5791 5797 5804
5654 5659 5666 5673 5682 5687 5696 5712 5717 5717 5717 5720 5726 5718 5751 5759 5780 5788 5796 5794 5785 5782 5776 5777 5776 5765 5766 5756 5732 5749 5763 5778 5786 5818 5825 5816 5787 5772 5780 5785 5773 5762 5776 5794 5794
5647 5652 5658 5666 5675 5679 5688 5704 5704 5702 5713 5721 5733 5739 5758 5772 5780 5774 5785 5779 5780 5769 5748 5769 5748 5742 5754 5765 5769 5773 5772 5771 5797 5827 5821 5816 5788 5788 5781 5779 5769 5764 5775 5787 5794
5639 5645 5652 5659 5670 5675 5675 5685 5702 5709 5698 5730 5738 5744 5756 5762 5749 5763 5777 5755 5757 5741 5756 5745 5736 5761 5772 5772 5769 5768 5766 5773 5801 5825 5820 5816 5793 5798 5796 5790 5792 5797 5794 5793 5800
5633 5637 5645 5654 5664 5676 5681 5690 5711 5713 5690 5718 5735 5734 5741 5747 5738 5745 5758 5753 5746 5737 5743 5731 5750 5768 5766 5763 5763 5765 5759 5772 5778 5808 5816 5818 5777 5783 5794 5801 5796 5807 5805 5791 5807
5628 5633 5637 5647 5658 5671 5678 5698 5705 5706 5662 5703 5715 5726 5736 5736 5723 5755 5755 5744 5742 5731 5741 5740 5759 5759 5755 5755 5764 5742 5782 5787 5788 5777 5749 5807 5744 5771 5785 5788 5796 5794 5793 5792 5780
5624 5627 5632 5631 5643 5656 5679 5691 5696 5686 5638 5703 5709 5733 5731 5714 5722 5728 5746 5734 5717 5726 5734 5730 5744 5748 5749 5759 5772 5758 5781 5776 5777 5769 5765 5782 5751 5781 5790 5772 5782 5797 5796 5791 5792
5619 5621 5625 5642 5637 5661 5675 5682 5677 5639 5641 5690 5703 5700 5700 5706 5715 5722 5720 5728 5730 5720 5727 5731 5757 5753 5755 5769 5774 5779 5767 5763 5763 5750 5717 5763 5754 5772 5769 5798 5788 5790 5802 5802 5801
5614 5620 5617 5629 5643 5665 5671 5661 5631 5630 5699 5678 5682 5695 5694 5692 5700 5704 5700 5694 5686 5681 5685 5711 5723 5746 5757 5740 5763 5758 5737 5696 5696 5702 5720 5761 5750 5771 5809 5816 5809 5803 5798 5826 5819
5616 5622 5631 5638 5652 5659 5658 5637 5623 5661 5666 5686 5682 5689 5681 5691 5692 5693 5687 5678 5699 5695 5679 5676 5679 5722 5747 5736 5731 5735 5726 5691 5679 5689 5722 5752 5731 5778 5823 5827 5814 5812 5817 5823 5835
5618 5634 5636 5651 5654 5656 5637 5620 5624 5640 5648 5654 5671 5668 5671 5684 5682 5675 5673 5672 5685 5679 5662 5661 5678 5711 5723 5725 5732 5722 5708 5743 5711 5721 5711 5731 5761 5802 5818 5828 5822 5812 5806 5812 5817
5613 5627 5642 5660 5661 5649 5627 5629 5635 5641 5647 5651 5642 5657 5650 5656 5659 5658 5664 5669 5670 5675 5673 5660 5648 5689 5705 5715 5732 5722 5742 5698 5702 5675 5681 5713 5735 5751 5795 5809 5823 5823 5818 5825 5817
5618 5625 5650 5660 5657 5635 5620 5617 5631 5642 5641 5633 5631 5633 5636 5637 5638 5638 5645 5638 5654 5658 5661 5659 5648 5661 5681 5686 5683 5691 5699 5705 5702 5696 5687 5685 5717 5786 5797 5800 5811 5838 5838 5836 5824
5624 5624 5654 5660 5626 5633 5617 5623 5616 5628 5635 5630 5632 5631 5620 5624 5621 5624 5625 5629 5640 5642 5628 5632 5632 5624 5649 5682 5689 5684 5681 5693 5673 5676 5692 5690 5706 5811 5800 5800 5810 5842 5850 5845 5836
5619 5639 5657 5658 5612 5617 5627 5617 5612 5609 5606 5607 5610 5610 5613 5607 5600 5612 5617 5629 5626 5619 5604 5610 5604 5597 5623 5657 5680 5663 5682 5686 5695 5689 5678 5678 5704 5784 5777 5784 5784 5797 5801 5825 5822
5620 5623 5631 5630 5619 5607 5605 5607 5600 5605 5599 5600 5599 5603 5595 5589 5598 5598 5604 5615 5616 5608 5607 5601 5589 5584 5585 5615 5625 5625 5646 5660 5668 5665 5675 5693 5712 5736 5755 5761 5769 5785 5795 5801 5812
5624 5613 5615 5596 5599 5598 5597 5589 5587 5580 5592 5593 5592 5588 5580 5570 5574 5580 5581 5585 5594 5596 5592 5575 5565 5571 5584 5601 5607 5617 5625 5634 5638 5659 5661 5688 5704 5720 5738 5749 5757 5767 5772 5772 5774
5609 5602 5608 5600 5604 5592 5583 5574 5570 5570 5575 5576 5571 5574 5572 5563 5563 5559 5562 5560 5563 5571 5571 5568 5549 5549 5552 5571 5584 5597 5616 5624 5633 5658 5669 5682 5695 5712 5724 5744 5747 5752 5757 5752 5750
5609 5607 5598 5594 5589 5578 5567 5566 5566 5568 5569 5573 5567 5559 5556 5559 5560 5560 5559 5557 5555 5550 5547 5546 5533 5526 5526 5542 5548 5558 5599 5612 5628 5648 5658 5655 5675 5686 5688 5711 5720 5733 5733 5739 5742